Alpena, MI

11:12 PM EDT on April 23, 2018 (GMT -0400)
Alpena County Regional

Weather History for KAPN - March, 2014

Change the Weather History Date:

Tuesday, March 18, 2014

  Actual Average Record
Temperature  
Mean Temperature 26 °F 29 °F  
Max Temperature 32 °F 39 °F 75 °F (2012)
Min Temperature 20 °F 20 °F -12 °F (1967)
Degree Days  
Heating Degree Days 39 36  
Month to date heating degree days 868 698  
Since 1 July heating degree days 7357 6430  
Cooling Degree Days 0 0  
Month to date cooling degree days 0 0  
Year to date cooling degree days 0 0  
Moisture  
Dew Point 21 °F    
Average Humidity 78    
Maximum Humidity 85    
Minimum Humidity 71    
Precipitation  
Precipitation 0.00 in 0.06 in 0.77 in (1998)
Month to date precipitation 0.28 1.03  
Year to date precipitation 2.81 4.01  
Snow  
Snow 0.00 in 0.40 in 3.40 in (1940)
Month to date snowfall 2.0 8.1  
Since 1 July snowfall 57.5 74.2  
Snow Depth 12.00 in    
Sea Level Pressure  
Sea Level Pressure 30.05 in    
Wind  
Wind Speed 9 mph (ESE)    
Max Wind Speed 18 mph    
Max Gust Speed 22 mph    
Visibility 10 miles    
Events      
T = Trace of Precipitation, MM = Missing Value Source: NWS Daily Summary

Daily Weather History Graph

Daily Weather History Graph

Search for Another Location

Airport or City:

Astronomy

Mar. 18, 2014 Rise Set
Actual Time 7:41 AM EDT 7:44 PM EDT
Civil Twilight 7:11 AM EDT 8:13 PM EDT
Nautical Twilight 6:37 AM EDT 8:47 PM EDT
Astronomical Twilight 6:02 AM EDT 9:23 PM EDT
Moon 10:07 PM EDT (3/18) 8:24 AM EDT (3/18)
Length of Visible Light 13h 01m
Length of Day
12h 03m
Waning Gibbous, 96% of the Moon is Illuminated
Mar 18
Waning Gibbous
Mar 23
Last Quarter
Mar 30
New
Apr 7
First Quarter
Apr 15
Full

Hourly Weather History & Observations

Time (EDT) Temp. Windchill Dew Point Humidity Pressure Visibility Wind Dir Wind Speed Gust Speed Precip Events Conditions
12:54 AM 19.9 °F 11.1 °F 12.0 °F 71% 30.03 in 10.0 mi ESE 6.9 mph - N/A   Overcast
1:54 AM 21.0 °F 12.4 °F 14.0 °F 74% 30.03 in 10.0 mi ESE 6.9 mph - N/A   Overcast
2:54 AM 21.9 °F 13.4 °F 15.1 °F 75% 30.04 in 10.0 mi SE 6.9 mph - N/A   Overcast
3:54 AM 21.9 °F 11.7 °F 17.1 °F 82% 30.04 in 10.0 mi SSE 9.2 mph - N/A   Overcast
4:54 AM 23.0 °F 14.7 °F 17.1 °F 78% 30.03 in 10.0 mi SE 6.9 mph - N/A   Overcast
5:54 AM 23.0 °F 17.0 °F 16.0 °F 74% 30.04 in 10.0 mi SE 4.6 mph - N/A   Overcast
6:54 AM 23.0 °F 15.8 °F 18.0 °F 81% 30.04 in 10.0 mi SE 5.8 mph - N/A   Overcast
7:54 AM 23.0 °F 13.1 °F 18.0 °F 81% 30.05 in 10.0 mi SE 9.2 mph - N/A   Overcast
8:54 AM 24.1 °F 15.2 °F 18.0 °F 77% 30.06 in 10.0 mi SE 8.1 mph - N/A   Partly Cloudy
9:54 AM 25.0 °F 15.5 °F 19.0 °F 78% 30.08 in 10.0 mi SE 9.2 mph - N/A   Scattered Clouds
10:54 AM 27.0 °F 17.3 °F 19.9 °F 75% 30.08 in 10.0 mi East 10.4 mph - N/A   Mostly Cloudy
11:54 AM 28.0 °F 18.6 °F 21.0 °F 75% 30.07 in 10.0 mi East 10.4 mph - N/A   Clear
12:54 PM 28.9 °F 19.2 °F 21.9 °F 75% 30.07 in 10.0 mi East 11.5 mph - N/A   Partly Cloudy
1:54 PM 30.0 °F 21.1 °F 23.0 °F 75% 30.09 in 10.0 mi ESE 10.4 mph - N/A   Partly Cloudy
2:54 PM 30.9 °F 21.2 °F 24.1 °F 76% 30.08 in 10.0 mi East 12.7 mph - N/A   Mostly Cloudy
3:54 PM 30.9 °F 21.2 °F 25.0 °F 79% 30.06 in 10.0 mi ESE 12.7 mph - N/A   Clear
4:54 PM 30.9 °F 21.7 °F 24.1 °F 76% 30.06 in 10.0 mi ESE 11.5 mph - N/A   Clear
5:54 PM 30.9 °F 22.2 °F 26.1 °F 82% 30.06 in 10.0 mi ESE 10.4 mph - N/A   Clear
6:54 PM 30.9 °F 21.2 °F 26.1 °F 82% 30.04 in 9.0 mi ESE 12.7 mph - N/A   Clear
7:54 PM 30.9 °F 22.2 °F 27.0 °F 85% 30.04 in 9.0 mi ESE 10.4 mph - N/A   Partly Cloudy
8:54 PM 30.9 °F 23.5 °F 27.0 °F 85% 30.04 in 9.0 mi East 8.1 mph - N/A   Clear
9:54 PM 32.0 °F 23.6 °F 26.1 °F 79% 30.04 in 10.0 mi East 10.4 mph - N/A   Clear
10:54 PM 30.9 °F 22.2 °F 26.1 °F 82% 29.99 in 10.0 mi East 10.4 mph - N/A   Scattered Clouds
11:54 PM 32.0 °F 25.6 °F 25.0 °F 75% 30.00 in 10.0 mi East 6.9 mph - N/A   Clear